Tracking 30743 objects as of 21-Jun-2025
HD Live streaming from Space Station
objects crossing your sky now

FENGYUN 1C DEB

Track FENGYUN 1C DEB now!
10-day predictions


NORAD ID: 31921
Int'l Code: 1999-025CLY
Perigee: 837.4 km
Apogee: 1,142.4 km
Inclination: 99.3 °
Period: 104.8 minutes
Semi major axis: 7360 km
RCS: 0.0067 m2 (small)
Launch date: May 10, 1999
Source: People's Republic of China (PRC)
Launch site: Taiyaun Space Center, China (TSC)

Note: This is SATELLITE DEBRIS
Your satellite tracking list
Your tracking list is empty




NASA's NSSDC Master Catalog

Two Line Element Set (TLE):
1 31921U 99025CLY 25165.66782963  .00000899  00000-0  84880-3 0  9994
2 31921  99.3488  61.7365 0207163  20.4209 340.5074 13.74699294898184
Source of the keplerian elements: AFSPC